Tracking 29059 objects as of 19-Jun-2024
HD Live streaming from Space Station
objects crossing your sky now

AYRIS-2

Track AYRIS-2 now!
10-day predictions


NORAD ID: 56986
Int'l Code: 2023-084BG
Perigee: 487.1 km
Apogee: 502.7 km
Inclination: 97.5 °
Period: 94.4 minutes
Semi major axis: 6865 km
RCS: Unknown
Launch date: June 12, 2023
Source: Israel (ISRA)
Launch site: AIR FORCE WESTERN TEST RANGE (AFWTR)
Your satellite tracking list
Your tracking list is empty




NASA's NSSDC Master Catalog

Two Line Element Set (TLE):
1 56986U 23084BG  24170.85951894  .00018113  00000-0  70506-3 0  9999
2 56986  97.5387 290.6449 0011377 359.5863   0.5363 15.25999133 56451
Source of the keplerian elements: AFSPC